Weather History for Dayton, OH

Change the Weather History Date:

Monday, January 6, 2014

  Actual Average Record
Temperature  
Mean Temperature 7 °F 28 °F  
Max Temperature 23 °F 35 °F 67 °F (1946)
Min Temperature -10 °F 21 °F -10 °F (2014)
Degree Days  
Heating Degree Days 58 37  
Month to date heating degree days 273 222  
Since 1 July heating degree days 2392 2381  
Cooling Degree Days 0 0  
Month to date cooling degree days 0 0  
Year to date cooling degree days 0 0  
Moisture  
Dew Point -9 °F    
Average Humidity 74    
Maximum Humidity 88    
Minimum Humidity 59    
Precipitation  
Precipitation 0.01 in 0.10 in 1.86 in (1895)
Month to date precipitation 1.37 0.59  
Year to date precipitation 1.37 0.59  
Snow  
Snow 0.60 in 0.20 in 4.80 in (1910)
Month to date snowfall 6.7 1.4  
Since 1 July snowfall 21.3 6.9  
Snow Depth 2.00 in    
Sea Level Pressure  
Sea Level Pressure 30.14 in    
Wind  
Wind Speed 23 mph (West)    
Max Wind Speed 32 mph    
Max Gust Speed 41 mph    
Visibility 5 miles    
Events Snow    
T = Trace of Precipitation, MM = Missing Value Source: NWS Daily Summary

Daily Weather History Graph

Daily Weather History Graph

Search for Another Location

Airport:

Trip Planner

Search our weather history database for the weather conditions in past years. The results will help you decide how hot, cold, wet, or windy it might be!

Date:

Astronomy

Jan. 06, 2014 Rise Set
Actual Time 7:58 AM EST 5:27 PM EST
Civil Twilight 7:28 AM EST 5:57 PM EST
Nautical Twilight 6:54 AM EST 6:31 PM EST
Astronomical Twilight 6:22 AM EST 7:03 PM EST
Moon 11:13 AM EST (1/6) 11:59 PM EST (1/6)
Length of Visible Light 10h 28m
Length of Day
9h 28m
Waxing Crescent, 34% of the Moon is Illuminated
Jan 6
Waxing Crescent
Jan 7
First Quarter
Jan 15
Full
Jan 24
Last Quarter
Jan 30
New

Hourly Weather History & Observations

Time (EST) Temp. Windchill Dew Point Humidity Pressure Visibility Wind Dir Wind Speed Gust Speed Precip Events Conditions
12:12 AM 23.0 °F 8.0 °F 19.4 °F 86% 29.67 in 3.0 mi NW 20.7 mph 32.2 mph N/A Snow Blowing Snow
12:45 AM 21.2 °F 3.9 °F 17.6 °F 86% 29.70 in 2.0 mi NW 26.5 mph 34.5 mph 0.00 in Snow Light Snow
12:56 AM 21.9 °F 4.8 °F 17.1 °F 82% 29.74 in 2.0 mi WNW 26.5 mph 32.2 mph 0.00 in Snow Light Snow
1:56 AM 21.9 °F 6.2 °F 17.1 °F 82% 29.79 in 2.0 mi WNW 21.9 mph 36.8 mph 0.00 in Snow Light Snow
2:26 AM 15.8 °F -3.4 °F 10.4 °F 79% 29.80 in 1.0 mi West 26.5 mph 36.8 mph 0.00 in Snow Light Snow
2:56 AM 12.0 °F -8.1 °F 8.1 °F 84% 29.88 in 1.0 mi WNW 25.3 mph 32.2 mph 0.00 in Snow Light Snow
3:09 AM 12.2 °F -6.3 °F 6.8 °F 79% 29.86 in 2.0 mi West 20.7 mph 31.1 mph 0.00 in Snow Blowing Snow
3:25 AM 10.4 °F -10.7 °F 5.0 °F 79% 29.88 in 2.5 mi WNW 26.5 mph 34.5 mph 0.00 in Snow Blowing Snow
3:45 AM 10.4 °F -9.1 °F 3.2 °F 73% 29.90 in 2.5 mi WNW 21.9 mph 33.4 mph 0.00 in Snow Light Snow
3:56 AM 9.0 °F -11.8 °F 3.0 °F 77% 29.95 in 2.0 mi West 24.2 mph 33.4 mph 0.00 in Snow Light Snow
4:56 AM 3.9 °F -19.0 °F -0.9 °F 80% 30.00 in 2.0 mi West 25.3 mph - 0.00 in Snow Blowing Snow
5:25 AM 3.2 °F -18.6 °F -2.2 °F 78% 29.98 in 4.0 mi West 21.9 mph 29.9 mph N/A Snow Blowing Snow
5:56 AM 1.9 °F -20.7 °F -4.0 °F 76% 30.04 in 5.0 mi West 23.0 mph 29.9 mph N/A Snow Blowing Snow
6:56 AM -0.0 °F -21.3 °F -7.1 °F 72% 30.08 in 5.0 mi West 18.4 mph 26.5 mph N/A Snow Blowing Snow
7:56 AM -2.9 °F -27.2 °F -11.0 °F 68% 30.12 in 6.0 mi West 23.0 mph 32.2 mph N/A Snow Blowing Snow
8:40 AM -5.8 °F -29.9 °F -14.8 °F 65% 30.09 in 9.0 mi West 20.7 mph 31.1 mph N/A   Mostly Cloudy
8:56 AM -5.1 °F -29.0 °F -14.1 °F 65% 30.16 in 10.0 mi West 20.7 mph 28.8 mph N/A   Mostly Cloudy
9:56 AM -6.0 °F -33.9 °F -15.0 °F 65% 30.19 in 7.0 mi West 29.9 mph 35.7 mph N/A   Mostly Cloudy
10:47 AM -7.6 °F -33.4 °F -16.6 °F 65% 30.15 in 10.0 mi West 23.0 mph 29.9 mph 0.00 in   Mostly Cloudy
10:56 AM -7.1 °F -33.2 °F -16.1 °F 65% 30.22 in 10.0 mi West 24.2 mph - N/A   Mostly Cloudy
11:56 AM -7.1 °F -32.1 °F -16.1 °F 65% 30.22 in 8.0 mi West 21.9 mph 27.6 mph N/A   Overcast
12:56 PM -7.1 °F -31.6 °F -16.1 °F 65% 30.20 in 10.0 mi West 20.7 mph - N/A   Mostly Cloudy
1:56 PM -6.0 °F -32.7 °F -15.0 °F 65% 30.22 in 9.0 mi West 26.5 mph 31.1 mph N/A   Overcast
2:56 PM -6.0 °F -29.0 °F -14.1 °F 68% 30.24 in 3.0 mi West 18.4 mph 28.8 mph N/A   Overcast
3:56 PM -6.0 °F -31.7 °F -16.1 °F 62% 30.27 in 6.0 mi West 24.2 mph 28.8 mph N/A   Mostly Cloudy
4:15 PM -7.6 °F -32.3 °F -14.8 °F 71% 30.20 in 1.8 mi West 20.7 mph - 0.00 in Snow Light Snow
4:29 PM -7.6 °F -31.1 °F -14.8 °F 71% 30.21 in 2.5 mi West 18.4 mph - 0.00 in Snow Light Snow
4:54 PM -7.6 °F -33.4 °F -16.6 °F 65% 30.21 in 4.0 mi WSW 23.0 mph 29.9 mph 0.00 in   Haze
4:56 PM -8.0 °F -34.9 °F -17.0 °F 65% 30.30 in 4.0 mi WSW 25.3 mph 29.9 mph 0.00 in   Overcast
5:32 PM -7.6 °F -32.9 °F -14.8 °F 71% 30.22 in 2.0 mi West 21.9 mph 27.6 mph 0.00 in Snow Light Snow
5:49 PM -7.6 °F -33.9 °F -16.6 °F 65% 30.23 in 3.0 mi West 24.2 mph 31.1 mph 0.00 in Snow Light Snow
5:52 PM -7.6 °F -32.9 °F -16.6 °F 65% 30.24 in 1.8 mi West 21.9 mph 31.1 mph 0.00 in   Overcast
5:56 PM -8.0 °F -33.9 °F -16.1 °F 68% 30.32 in 1.5 mi WSW 23.0 mph 31.1 mph 0.00 in Snow Light Snow
6:08 PM -9.4 °F -36.8 °F -18.4 °F 65% 30.24 in 4.0 mi West 25.3 mph 35.7 mph 0.00 in   Overcast
6:13 PM -9.4 °F -38.2 °F -18.4 °F 65% 30.24 in 3.0 mi WSW 28.8 mph 35.7 mph 0.00 in   Overcast
6:56 PM -9.0 °F -34.8 °F -18.0 °F 65% 30.35 in 8.0 mi West 21.9 mph 27.6 mph 0.00 in   Mostly Cloudy
7:56 PM -9.0 °F -33.0 °F -18.9 °F 62% 30.37 in 10.0 mi West 18.4 mph - N/A   Overcast
8:22 PM -9.4 °F -35.8 °F -18.4 °F 65% 30.28 in 10.0 mi West 23.0 mph 32.2 mph N/A   Scattered Clouds
8:31 PM -9.4 °F -36.3 °F -18.4 °F 65% 30.28 in 10.0 mi West 24.2 mph 29.9 mph N/A   Mostly Cloudy
8:56 PM -9.0 °F -34.8 °F -18.9 °F 62% 30.38 in 10.0 mi West 21.9 mph 29.9 mph N/A   Mostly Cloudy
9:26 PM -9.4 °F -36.3 °F -18.4 °F 65% 30.29 in 10.0 mi West 24.2 mph 31.1 mph N/A   Scattered Clouds
9:46 PM -9.4 °F -36.3 °F -18.4 °F 65% 30.29 in 9.0 mi West 24.2 mph 29.9 mph N/A   Mostly Cloudy
9:56 PM -9.0 °F -34.8 °F -18.0 °F 65% 30.39 in 7.0 mi West 21.9 mph 33.4 mph N/A   Overcast
10:56 PM -9.0 °F -35.3 °F -17.0 °F 68% 30.39 in 7.0 mi West 23.0 mph 31.1 mph N/A   Mostly Cloudy
11:56 PM -9.0 °F -34.2 °F -17.0 °F 68% 30.38 in 10.0 mi West 20.7 mph 28.8 mph N/A   Mostly Cloudy